Location: Grossmotten
(48.5500°N, 15.3833°E)
Time: 02:40:39
(UTC+00:00)

Okean 3 Rocket - Pass Details

Date: 15 November 2019
Orbit: 614 x 646 km, 82.5° (Epoch: 08 December)

Event Time Altitude Azimuth Distance (km) Brightness Sun altitude
Rises 04:22:58 0° 193° (SSW) 2,942 7.0 -16.9°
Reaches altitude 10° 04:25:13 10° 195° (SSW) 2,034 6.1 -16.6°
Maximum altitude 04:29:44 74° 280° (W) 670 3.5 -15.8°
Drops below altitude 10° 04:34:15 10° 6° (N) 2,034 6.2 -15.1°
Sets 04:36:30 0° 9° (N) 2,941 7.0 -14.7°
